Cosmos 1470 - Orbit

View from above orbital plane
View from above orbital plane
View from above satellite
View from above satellite

Ground track
Ground track

The orbit data is extracted from the following two-line orbital elements,

1 14147U 83061A   13168.74476659  .00001355  00000-0  94648-4 0  7337
2 14147 082.5081 025.8575 0013235 247.1553 112.8276 15.04508915384668
Epoch (UTC): 17 June 2013 17:52:27
Eccentricity: 0.0013235
inclination: 82.5081°
perigee height: 544 km
apogee height: 562 km
right ascension of ascending node: 25.8575°
argument of perigee: 247.1553°
revolutions per day: 15.04508915
mean anomaly at epoch: 112.8276°
orbit number at epoch: 38466

The dashed part of the orbit path shows where the satellite is in the earth's shadow,  

Developed and maintained by Chris Peat, Heavens-Above GmbH. Please read the updated FAQ before sending e-mail. Imprint. DLR